Location: ?????
(55.6500°N, 37.2500°E)
Time: 11:21:15
(UTC+00:00)

Cosmos 2333 Rocket - Pass Details

Date: 19 May 2025
Orbit: 840 x 862 km, 70.8° (Epoch: 13 June)

Event Time Altitude Azimuth Distance (km) Brightness Sun altitude
Rises 20:20:50 0° 324° (NW) 3,446 6.9 -13.1°
Reaches altitude 10° 20:23:19 10° 327° (NNW) 2,503 5.9 -13.2°
Maximum altitude 20:29:05 74° 52° (NE) 892 2.4 -13.4°
Enters shadow 20:33:54 15° 137° (SE) 2,151 3.8 -13.5°
